Showing default

TIROS 10, 1430

Orbit data source: Space-Track

TIROS 10, 1430 is a payload satellite owned by ESSA (US) in SSO that was launched on Fri, 02 Jul 1965 UTC via a THOR DELTA C launch vehicle from the Air Force Eastern Test Range (AFETR). Payload-class satellites include a variety of spacecraft equipped with specific instruments for various scientific and technological missions. These include communications satellites like Starlink; space stations such as the ISS; scientific satellites like the Hubble; Earth observation satellites from companies like Planet Labs, Umbra, and HawkEye 360; GPS; miniature CubeSats for education and research; and military/defense satellites.

Loading next visibility...
Identifier
1430, 1965-051A
Orbit
SSO
Last TLE update
9 hours ago
Origin
Manufacturer
RCA/East Windsor
Mission
Non-operational Civil Weather
Bus & Motor
TIROS I, Unknown motor
Mass
127 kg wet, 127 kg dry
Launch date (UTC)
1965-07-02 (60 years ago)
Launch vehicle
THOR DELTA C
Launch site
Air Force Eastern Test Range (AFETR)
Object type
Payload
Rocket body
Debris
Shape & HBR
Cyl, 1.07 m
Radar Cross Section
0.920 m², Medium (>0.1 m² and < 1m²)

Expand to show TLE details & history

TLE from 9 hours ago
0 TIROS 10
1 01430U 65051A   25132.88527871  .00000232  00000-0  83831-4 0  9998
2 01430  98.4644 249.9679 0055121 200.0324 159.8701 14.41396966138244
Epoch: 2025-05-12T21:14Z
Definitive object data (Epoch: 2025-05-12T21:14:48.08Z)
Latitude
-0.00009°
Longitude
60.37563°
Altitude
793.782 km
Speed
7.437 km/s
True Right ascension
16h 39m 52s
True Declination
0° 00' 00"
Sunlit
Object was in full shadow at TLE epoch
Visualization TLE readout
Latitude
-49.52627°
Longitude
-129.22627°
Altitude
739.37 km
Speed
7.502 km/s
Apparent Right ascension
03h 31m 25s
Apparent Declination
-45° 02' 17"
Sunlit
Object is in daylight
Visualization observer readout
Local Sidereal Time
15:03:02
Azimuth
223.254° SW
Elevation
-82.684°
Doppler factor
1
Orbital elements
Apogee altitude
790.301 km
Perigee altitude
711.708 km
Semi-major axis
7,129.142 km
Eccentricity
0.0055121
Inclination
98.4644°
RAAN
249.9679°
Arg. of periapsis
200.0324°
True anomaly
160.08608°
Mean anomaly
159.8701°
Eccentric anomaly
159.97823°
Mean motion
3.60568 °/min
BSTAR
0.000083831
Orbital period
99.84 mins
Loading maneuver chart data...
Loading SW <> Apogee altitude chart data...
Loading historical data...
Loading historical data...
Loading historical data...
Loading historical data...
Loading historical data...
Loading historical data...
Loading historical data...
Other satellites on launch #51 in the year 1965 (1965-07-02 UTC)

TIROS 10 Visibility forecast

Observer location: undefined°, undefined°

Span
Click to sort rows by Start time (UTC) header in descending order
Start Az.
Max El. time (UTC)
Max El. Az.
Max El.
End time (UTC)
End Az.
9 mins2025-05-13 07:21:24.649Z148.779° SSE2025-05-13 07:26:24.649Z62.571° ENE39.612°2025-05-13 07:30:24.649Z358.006° N
5 mins2025-05-13 09:03:24.649Z243.156° WSW2025-05-13 09:05:24.649Z270.056° WNW16.282°2025-05-13 09:08:24.649Z306.516° NW
4 mins2025-05-13 19:32:24.649Z72.416° E2025-05-13 19:33:24.649Z87.128° E16.691°2025-05-13 19:36:24.649Z128.723° SE
7 mins2025-05-13 21:09:24.649Z355.629° N2025-05-13 21:12:24.649Z302.978° NW36.19°2025-05-13 21:16:24.649Z219.523° SW
|